Time,TemperatureF,DewpointF,PressureIn,WindDirection,WindDirectionDegrees,WindSpeedMPH,WindSpeedGustMPH,Humidity,HourlyPrecipIn,Conditions,Clouds,dailyrainin,SoftwareType,DateUTC
2013-04-21 00:01:00,53.3,37.9,30.08,ESE,113,0.8,2.5,56,0.00,,,0.00,WUHU216HW,2013-04-21 05:01:00,
2013-04-21 00:06:00,52.9,38.1,30.08,ESE,118,0.7,2.5,57,0.00,,,0.00,WUHU216HW,2013-04-21 05:06:00,
2013-04-21 00:11:00,52.9,38.1,30.08,ESE,118,0.9,1.3,57,0.00,,,0.00,WUHU216HW,2013-04-21 05:11:00,
2013-04-21 00:16:00,52.9,38.1,30.08,ESE,113,0.9,1.1,57,0.00,,,0.00,WUHU216HW,2013-04-21 05:16:00,
2013-04-21 00:21:00,52.9,38.5,30.08,ESE,118,0.7,1.1,58,0.00,,,0.00,WUHU216HW,2013-04-21 05:21:00,
2013-04-21 00:26:00,52.9,38.5,30.08,ESE,113,1.1,1.1,58,0.00,,,0.00,WUHU216HW,2013-04-21 05:26:00,
2013-04-21 00:31:00,53.1,39.2,30.08,SE,128,0.6,2.0,59,0.00,,,0.00,WUHU216HW,2013-04-21 05:31:00,
2013-04-21 00:36:00,53.3,39.3,30.09,ESE,113,2.5,2.5,59,0.00,,,0.00,WUHU216HW,2013-04-21 05:36:00,
2013-04-21 00:41:00,53.3,39.3,30.09,ESE,113,1.1,3.1,59,0.00,,,0.00,WUHU216HW,2013-04-21 05:41:00,
2013-04-21 00:46:00,53.3,39.8,30.09,SSE,158,1.1,3.1,60,0.00,,,0.00,WUHU216HW,2013-04-21 05:46:00,
2013-04-21 00:51:00,53.3,39.8,30.09,SSE,148,1.3,1.8,60,0.00,,,0.00,WUHU216HW,2013-04-21 05:51:00,
2013-04-21 00:56:00,53.3,40.1,30.09,SE,135,2.5,2.5,61,0.00,,,0.00,WUHU216HW,2013-04-21 05:56:00,
2013-04-21 01:01:00,53.1,40.4,30.09,ESE,113,1.8,2.5,62,0.00,,,0.00,WUHU216HW,2013-04-21 06:01:00,
2013-04-21 01:06:00,52.9,40.2,30.09,ESE,113,1.4,2.0,62,0.00,,,0.00,WUHU216HW,2013-04-21 06:06:00,
2013-04-21 01:11:00,52.9,40.2,30.09,SE,126,0.9,2.0,62,0.00,,,0.00,WUHU216HW,2013-04-21 06:11:00,
2013-04-21 01:16:00,52.9,40.6,30.09,ESE,121,1.4,2.5,63,0.00,,,0.00,WUHU216HW,2013-04-21 06:16:00,
2013-04-21 01:21:00,52.6,40.3,30.09,SSW,203,2.0,2.5,63,0.00,,,0.00,WUHU216HW,2013-04-21 06:21:00,
2013-04-21 01:26:00,52.4,40.5,30.09,SE,125,0.9,2.0,64,0.00,,,0.00,WUHU216HW,2013-04-21 06:26:00,
2013-04-21 01:31:00,52.2,40.3,30.09,SE,130,1.0,2.0,64,0.00,,,0.00,WUHU216HW,2013-04-21 06:31:00,
2013-04-21 01:36:00,52.0,40.1,30.09,SE,135,1.1,1.3,64,0.00,,,0.00,WUHU216HW,2013-04-21 06:36:00,
2013-04-21 01:41:00,51.8,40.4,30.09,SE,124,0.9,1.6,65,0.00,,,0.00,WUHU216HW,2013-04-21 06:41:00,
2013-04-21 01:46:00,51.7,40.7,30.09,ESE,113,1.1,1.8,66,0.00,,,0.00,WUHU216HW,2013-04-21 06:46:00,
2013-04-21 01:51:00,51.5,40.5,30.09,ESE,113,1.0,1.8,66,0.00,,,0.00,WUHU216HW,2013-04-21 06:51:00,
2013-04-21 01:56:00,51.3,40.3,30.09,ESE,119,0.9,1.6,66,0.00,,,0.00,WUHU216HW,2013-04-21 06:56:00,
2013-04-21 02:01:00,51.3,41.1,30.09,ESE,104,0.9,1.6,68,0.00,,,0.00,WUHU216HW,2013-04-21 07:01:00,
2013-04-21 02:06:00,51.1,41.0,30.09,SE,135,1.3,2.7,68,0.00,,,0.00,WUHU216HW,2013-04-21 07:06:00,
2013-04-21 02:11:00,51.1,41.0,30.09,SE,135,1.3,2.7,68,0.00,,,0.00,WUHU216HW,2013-04-21 07:11:00,
2013-04-21 02:16:00,50.8,40.6,30.09,SE,130,1.6,2.5,68,0.00,,,0.00,WUHU216HW,2013-04-21 07:16:00,
2013-04-21 02:21:00,50.9,40.8,30.09,ESE,113,1.1,2.5,68,0.00,,,0.00,WUHU216HW,2013-04-21 07:21:00,
2013-04-21 02:26:00,50.9,40.8,30.09,East,94,0.9,3.8,68,0.00,,,0.00,WUHU216HW,2013-04-21 07:26:00,
2013-04-21 02:31:00,50.8,40.6,30.09,ESE,113,0.9,3.8,68,0.00,,,0.00,WUHU216HW,2013-04-21 07:31:00,
2013-04-21 02:36:00,50.6,40.4,30.09,SE,135,1.1,2.2,68,0.00,,,0.00,WUHU216HW,2013-04-21 07:36:00,
2013-04-21 02:41:00,50.6,40.9,30.09,ESE,113,1.1,1.8,69,0.00,,,0.00,WUHU216HW,2013-04-21 07:41:00,
2013-04-21 02:46:00,50.4,40.7,30.09,ESE,107,1.3,2.0,69,0.00,,,0.00,WUHU216HW,2013-04-21 07:46:00,
2013-04-21 02:51:00,50.4,40.7,30.09,ESE,104,1.3,2.5,69,0.00,,,0.00,WUHU216HW,2013-04-21 07:51:00,
2013-04-21 02:56:00,50.2,40.5,30.09,SE,135,1.6,2.5,69,0.00,,,0.00,WUHU216HW,2013-04-21 07:56:00,
2013-04-21 03:01:00,50.2,40.5,30.09,ESE,117,1.6,2.5,69,0.00,,,0.00,WUHU216HW,2013-04-21 08:01:00,
2013-04-21 03:06:00,50.0,40.3,30.10,ESE,113,1.8,2.5,69,0.00,,,0.00,WUHU216HW,2013-04-21 08:06:00,
2013-04-21 03:11:00,50.0,40.3,30.10,ESE,113,1.1,2.2,69,0.00,,,0.00,WUHU216HW,2013-04-21 08:11:00,
2013-04-21 03:16:00,50.0,40.3,30.10,ESE,118,0.8,1.8,69,0.00,,,0.00,WUHU216HW,2013-04-21 08:16:00,
2013-04-21 03:21:00,49.9,40.5,30.10,ESE,117,1.1,1.8,70,0.00,,,0.00,WUHU216HW,2013-04-21 08:21:00,
2013-04-21 03:26:00,49.7,40.3,30.10,ESE,123,0.7,1.8,70,0.00,,,0.00,WUHU216HW,2013-04-21 08:26:00,
2013-04-21 03:31:00,49.5,40.5,30.10,SE,146,1.7,3.1,71,0.00,,,0.00,WUHU216HW,2013-04-21 08:31:00,
2013-04-21 03:36:00,49.5,40.5,30.11,SE,135,0.9,3.1,71,0.00,,,0.00,WUHU216HW,2013-04-21 08:36:00,
2013-04-21 03:41:00,49.3,40.3,30.11,ESE,114,0.7,1.1,71,0.00,,,0.00,WUHU216HW,2013-04-21 08:41:00,
2013-04-21 03:46:00,49.1,40.2,30.11,SE,135,0.3,1.1,71,0.00,,,0.00,WUHU216HW,2013-04-21 08:46:00,
2013-04-21 03:51:00,49.0,40.3,30.11,SE,135,0.4,1.1,72,0.00,,,0.00,WUHU216HW,2013-04-21 08:51:00,
2013-04-21 03:56:00,48.8,40.2,30.11,SE,135,0.4,0.7,72,0.00,,,0.00,WUHU216HW,2013-04-21 08:56:00,
2013-04-21 04:01:00,48.6,40.2,30.11,SE,135,0.7,0.9,73,0.00,,,0.00,WUHU216HW,2013-04-21 09:01:00,
2013-04-21 04:06:00,48.6,40.2,30.11,ESE,123,0.6,1.1,73,0.00,,,0.00,WUHU216HW,2013-04-21 09:06:00,
2013-04-21 04:11:00,48.6,40.2,30.11,SE,129,0.8,1.3,73,0.00,,,0.00,WUHU216HW,2013-04-21 09:11:00,
2013-04-21 04:16:00,48.6,40.2,30.11,East,94,0.6,1.3,73,0.00,,,0.00,WUHU216HW,2013-04-21 09:16:00,
2013-04-21 04:21:00,48.4,40.1,30.11,SE,135,0.4,1.1,73,0.00,,,0.00,WUHU216HW,2013-04-21 09:21:00,
2013-04-21 04:26:00,48.4,40.4,30.11,SE,135,0.4,0.7,74,0.00,,,0.00,WUHU216HW,2013-04-21 09:26:00,
2013-04-21 04:31:00,48.4,40.4,30.12,ESE,122,0.5,1.1,74,0.00,,,0.00,WUHU216HW,2013-04-21 09:31:00,
2013-04-21 04:36:00,48.4,40.4,30.12,ESE,113,0.4,1.1,74,0.00,,,0.00,WUHU216HW,2013-04-21 09:36:00,
2013-04-21 04:41:00,48.6,40.6,30.12,SE,126,0.5,0.9,74,0.00,,,0.00,WUHU216HW,2013-04-21 09:41:00,
2013-04-21 04:46:00,48.4,40.4,30.12,SE,135,0.7,0.9,74,0.00,,,0.00,WUHU216HW,2013-04-21 09:46:00,
2013-04-21 04:51:00,48.4,40.8,30.12,ESE,113,1.1,1.1,75,0.00,,,0.00,WUHU216HW,2013-04-21 09:51:00,
2013-04-21 04:56:00,48.4,40.8,30.12,SSE,158,0.7,1.1,75,0.00,,,0.00,WUHU216HW,2013-04-21 09:56:00,
2013-04-21 05:01:00,48.2,40.6,30.13,SE,129,0.9,2.2,75,0.00,,,0.00,WUHU216HW,2013-04-21 10:01:00,
2013-04-21 05:06:00,48.2,40.6,30.13,SE,135,0.4,2.2,75,0.00,,,0.00,WUHU216HW,2013-04-21 10:06:00,
2013-04-21 05:11:00,48.2,40.6,30.13,SE,126,0.6,1.1,75,0.00,,,0.00,WUHU216HW,2013-04-21 10:11:00,
2013-04-21 05:16:00,48.2,40.6,30.13,SE,129,0.5,1.1,75,0.00,,,0.00,WUHU216HW,2013-04-21 10:16:00,
2013-04-21 05:22:00,48.1,40.8,30.13,ESE,113,0.8,1.1,76,0.00,,,0.00,WUHU216HW,2013-04-21 10:22:00,
2013-04-21 05:27:00,48.1,40.8,30.13,SE,135,1.1,1.6,76,0.00,,,0.00,WUHU216HW,2013-04-21 10:27:00,
2013-04-21 05:32:00,47.9,41.0,30.12,East,90,1.6,2.5,77,0.00,,,0.00,WUHU216HW,2013-04-21 10:32:00,
2013-04-21 05:37:00,47.9,41.0,30.12,ESE,113,1.8,2.5,77,0.00,,,0.00,WUHU216HW,2013-04-21 10:37:00,
2013-04-21 05:42:00,47.7,41.1,30.13,ESE,119,1.4,3.1,78,0.00,,,0.00,WUHU216HW,2013-04-21 10:42:00,
2013-04-21 05:46:00,47.9,41.0,30.13,ESE,113,1.6,3.1,77,0.00,,,0.00,WUHU216HW,2013-04-21 10:46:00,
2013-04-21 05:51:00,47.9,41.3,30.13,ESE,122,1.3,2.5,78,0.00,,,0.00,WUHU216HW,2013-04-21 10:51:00,
2013-04-21 05:57:00,47.9,41.0,30.13,SE,133,1.2,2.5,77,0.00,,,0.00,WUHU216HW,2013-04-21 10:57:00,
2013-04-21 06:02:00,48.1,41.1,30.13,SE,135,2.5,3.8,77,0.00,,,0.00,WUHU216HW,2013-04-21 11:02:00,
2013-04-21 06:07:00,48.1,40.8,30.13,SE,135,2.0,3.8,76,0.00,,,0.00,WUHU216HW,2013-04-21 11:07:00,
2013-04-21 06:12:00,48.2,41.0,30.13,East,90,2.5,3.4,76,0.00,,,0.00,WUHU216HW,2013-04-21 11:12:00,
2013-04-21 06:17:00,48.2,40.6,30.14,SE,135,1.1,3.4,75,0.00,,,0.00,WUHU216HW,2013-04-21 11:17:00,
2013-04-21 06:22:00,48.2,40.6,30.14,ESE,116,2.1,4.0,75,0.00,,,0.00,WUHU216HW,2013-04-21 11:22:00,
2013-04-21 06:27:00,48.2,40.6,30.14,ESE,118,1.8,4.0,75,0.00,,,0.00,WUHU216HW,2013-04-21 11:27:00,
2013-04-21 06:32:00,48.2,40.6,30.14,ESE,119,2.1,2.5,75,0.00,,,0.00,WUHU216HW,2013-04-21 11:32:00,
2013-04-21 06:37:00,48.2,40.6,30.15,ESE,122,1.1,2.5,75,0.00,,,0.00,WUHU216HW,2013-04-21 11:37:00,
2013-04-21 06:42:00,48.2,40.2,30.15,SE,135,1.8,4.7,74,0.00,,,0.00,WUHU216HW,2013-04-21 11:42:00,
2013-04-21 06:47:00,48.2,40.2,30.15,SE,127,1.3,4.7,74,0.00,,,0.00,WUHU216HW,2013-04-21 11:47:00,
2013-04-21 06:52:00,48.4,40.4,30.15,ESE,121,1.3,2.9,74,0.00,,,0.00,WUHU216HW,2013-04-21 11:52:00,
2013-04-21 06:57:00,48.4,39.8,30.16,SE,128,1.5,2.5,72,0.00,,,0.00,WUHU216HW,2013-04-21 11:57:00,
2013-04-21 07:02:00,48.6,40.0,30.16,SE,124,0.8,2.5,72,0.00,,,0.00,WUHU216HW,2013-04-21 12:02:00,
2013-04-21 07:07:00,48.6,40.2,30.16,SE,135,0.5,1.8,73,0.00,,,0.00,WUHU216HW,2013-04-21 12:07:00,
2013-04-21 07:12:00,48.8,40.2,30.16,SE,145,0.6,1.8,72,0.00,,,0.00,WUHU216HW,2013-04-21 12:12:00,
2013-04-21 07:17:00,48.8,40.2,30.17,SE,144,0.9,1.8,72,0.00,,,0.00,WUHU216HW,2013-04-21 12:17:00,
2013-04-21 07:22:00,49.0,40.3,30.17,SE,136,1.0,1.8,72,0.00,,,0.00,WUHU216HW,2013-04-21 12:22:00,
2013-04-21 07:27:00,49.0,40.3,30.17,SE,135,1.3,1.8,72,0.00,,,0.00,WUHU216HW,2013-04-21 12:27:00,
2013-04-21 07:32:00,49.1,40.5,30.17,SE,145,1.7,2.5,72,0.00,,,0.00,WUHU216HW,2013-04-21 12:32:00,
2013-04-21 07:37:00,49.3,40.3,30.17,ESE,113,2.5,2.7,71,0.00,,,0.00,WUHU216HW,2013-04-21 12:37:00,
2013-04-21 07:42:00,49.5,40.5,30.17,SE,130,1.1,2.7,71,0.00,,,0.00,WUHU216HW,2013-04-21 12:42:00,
2013-04-21 07:47:00,49.7,40.7,30.17,SE,135,1.8,3.4,71,0.00,,,0.00,WUHU216HW,2013-04-21 12:47:00,
2013-04-21 07:52:00,50.0,41.1,30.17,SE,135,1.3,3.4,71,0.00,,,0.00,WUHU216HW,2013-04-21 12:52:00,
2013-04-21 07:57:00,50.2,40.9,30.17,SE,138,1.3,3.4,70,0.00,,,0.00,WUHU216HW,2013-04-21 12:57:00,
2013-04-21 08:02:00,50.6,40.9,30.17,SE,131,1.4,3.4,69,0.00,,,0.00,WUHU216HW,2013-04-21 13:02:00,
2013-04-21 08:07:00,50.9,41.2,30.17,SE,127,0.8,4.0,69,0.00,,,0.00,WUHU216HW,2013-04-21 13:07:00,
2013-04-21 08:12:00,51.1,41.0,30.17,SE,135,1.6,4.0,68,0.00,,,0.00,WUHU216HW,2013-04-21 13:12:00,
2013-04-21 08:17:00,51.5,41.3,30.17,SE,133,1.4,2.5,68,0.00,,,0.00,WUHU216HW,2013-04-21 13:17:00,
2013-04-21 08:22:00,51.5,41.3,30.17,SE,135,2.0,2.2,68,0.00,,,0.00,WUHU216HW,2013-04-21 13:22:00,
2013-04-21 08:27:00,51.8,41.2,30.17,SSE,158,1.1,3.4,67,0.00,,,0.00,WUHU216HW,2013-04-21 13:27:00,
2013-04-21 08:32:00,52.2,41.1,30.17,SE,137,2.0,3.8,66,0.00,,,0.00,WUHU216HW,2013-04-21 13:32:00,
2013-04-21 08:37:00,52.7,41.7,30.17,SE,135,2.0,3.8,66,0.00,,,0.00,WUHU216HW,2013-04-21 13:37:00,
2013-04-21 08:42:00,53.6,42.1,30.17,SE,144,1.2,2.5,65,0.00,,,0.00,WUHU216HW,2013-04-21 13:42:00,
2013-04-21 08:47:00,54.4,42.0,30.17,ESE,119,1.6,3.1,63,0.00,,,0.00,WUHU216HW,2013-04-21 13:47:00,
2013-04-21 08:52:00,54.4,42.4,30.17,SE,135,2.9,3.1,64,0.00,,,0.00,WUHU216HW,2013-04-21 13:52:00,
2013-04-21 08:57:00,54.0,42.0,30.17,ESE,115,1.4,3.4,64,0.00,,,0.00,WUHU216HW,2013-04-21 13:57:00,
2013-04-21 09:02:00,53.8,41.9,30.17,ESE,120,1.1,3.4,64,0.00,,,0.00,WUHU216HW,2013-04-21 14:02:00,
2013-04-21 09:07:00,54.0,41.7,30.17,ESE,113,1.1,2.5,63,0.00,,,0.00,WUHU216HW,2013-04-21 14:07:00,
2013-04-21 09:12:00,54.7,42.8,30.17,SE,135,1.8,2.9,64,0.00,,,0.00,WUHU216HW,2013-04-21 14:12:00,
2013-04-21 09:17:00,55.6,42.4,30.17,SSE,158,1.8,2.9,61,0.00,,,0.00,WUHU216HW,2013-04-21 14:17:00,
2013-04-21 09:22:00,56.2,42.5,30.17,SSE,158,1.8,4.0,60,0.00,,,0.00,WUHU216HW,2013-04-21 14:22:00,
2013-04-21 09:27:00,56.7,42.6,30.17,SSE,152,2.0,4.0,59,0.00,,,0.00,WUHU216HW,2013-04-21 14:27:00,
2013-04-21 09:32:00,57.4,41.9,30.17,ESE,113,3.6,4.0,56,0.00,,,0.00,WUHU216HW,2013-04-21 14:32:00,
2013-04-21 09:37:00,58.0,42.9,30.17,SE,142,1.2,4.3,57,0.00,,,0.00,WUHU216HW,2013-04-21 14:37:00,
2013-04-21 09:42:00,58.3,42.7,30.17,SSE,158,2.7,4.3,56,0.00,,,0.00,WUHU216HW,2013-04-21 14:42:00,
2013-04-21 09:47:00,58.1,42.5,30.17,SE,135,3.8,4.3,56,0.00,,,0.00,WUHU216HW,2013-04-21 14:47:00,
2013-04-21 09:52:00,58.7,43.0,30.17,ESE,123,1.9,5.4,56,0.00,,,0.00,WUHU216HW,2013-04-21 14:52:00,
2013-04-21 09:57:00,59.4,44.1,30.17,SE,135,2.0,5.4,57,0.00,,,0.00,WUHU216HW,2013-04-21 14:57:00,
2013-04-21 10:02:00,60.1,42.9,30.17,ESE,117,1.9,4.7,53,0.00,,,0.00,WUHU216HW,2013-04-21 15:02:00,
2013-04-21 10:07:00,60.3,43.6,30.17,ESE,123,1.5,4.7,54,0.00,,,0.00,WUHU216HW,2013-04-21 15:07:00,
2013-04-21 10:12:00,60.7,43.9,30.17,East,89,1.7,3.8,54,0.00,,,0.00,WUHU216HW,2013-04-21 15:12:00,
2013-04-21 10:17:00,61.4,43.1,30.17,SSE,158,5.1,5.6,51,0.00,,,0.00,WUHU216HW,2013-04-21 15:17:00,
2013-04-21 10:22:00,61.7,43.4,30.17,SE,135,3.4,5.6,51,0.00,,,0.00,WUHU216HW,2013-04-21 15:22:00,
2013-04-21 10:27:00,61.9,43.1,30.17,SE,137,2.8,5.1,50,0.00,,,0.00,WUHU216HW,2013-04-21 15:27:00,
2013-04-21 10:32:00,62.3,43.4,30.17,SE,128,2.2,5.1,50,0.00,,,0.00,WUHU216HW,2013-04-21 15:32:00,
2013-04-21 10:37:00,63.0,43.5,30.17,ENE,68,2.7,3.6,49,0.00,,,0.00,WUHU216HW,2013-04-21 15:37:00,
2013-04-21 10:42:00,63.5,44.0,30.17,SE,126,1.9,4.0,49,0.00,,,0.00,WUHU216HW,2013-04-21 15:42:00,
2013-04-21 10:47:00,63.9,43.1,30.17,SE,125,3.6,4.5,47,0.00,,,0.00,WUHU216HW,2013-04-21 15:47:00,
2013-04-21 10:52:00,64.4,43.7,30.17,SE,130,3.6,5.1,47,0.00,,,0.00,WUHU216HW,2013-04-21 15:52:00,
2013-04-21 10:57:00,65.0,44.7,30.17,SSE,158,2.3,5.1,48,0.00,,,0.00,WUHU216HW,2013-04-21 15:57:00,
2013-04-21 11:02:00,65.2,44.4,30.17,SE,135,5.4,5.4,47,0.00,,,0.00,WUHU216HW,2013-04-21 16:02:00,
2013-04-21 11:07:00,64.6,42.7,30.17,SE,135,3.6,5.4,45,0.00,,,0.00,WUHU216HW,2013-04-21 16:07:00,
2013-04-21 11:12:00,64.1,42.8,30.17,SE,125,3.5,6.7,46,0.00,,,0.00,WUHU216HW,2013-04-21 16:12:00,
2013-04-21 11:17:00,64.4,43.7,30.17,ESE,113,2.7,6.7,47,0.00,,,0.00,WUHU216HW,2013-04-21 16:17:00,
2013-04-21 11:22:00,64.8,43.4,30.17,SSE,158,2.0,3.4,46,0.00,,,0.00,WUHU216HW,2013-04-21 16:22:00,
2013-04-21 11:27:00,65.2,42.6,30.16,SE,135,4.7,6.9,44,0.00,,,0.00,WUHU216HW,2013-04-21 16:27:00,
2013-04-21 11:32:00,65.2,43.2,30.16,SE,137,3.1,6.9,45,0.00,,,0.00,WUHU216HW,2013-04-21 16:32:00,
2013-04-21 11:37:00,66.1,42.2,30.16,SSE,157,3.4,6.5,42,0.00,,,0.00,WUHU216HW,2013-04-21 16:37:00,
2013-04-21 11:42:00,65.9,42.7,30.16,SE,135,2.5,6.3,43,0.00,,,0.00,WUHU216HW,2013-04-21 16:42:00,
2013-04-21 11:47:00,65.9,42.7,30.16,SE,135,2.5,5.1,43,0.00,,,0.00,WUHU216HW,2013-04-21 16:47:00,
2013-04-21 11:52:00,66.2,43.0,30.15,SSE,159,2.4,5.1,43,0.00,,,0.00,WUHU216HW,2013-04-21 16:52:00,
2013-04-21 11:57:00,67.5,44.1,30.15,SE,134,2.4,4.9,43,0.00,,,0.00,WUHU216HW,2013-04-21 16:57:00,
2013-04-21 12:02:00,68.6,43.9,30.15,South,180,3.1,4.9,41,0.00,,,0.00,WUHU216HW,2013-04-21 17:02:00,
2013-04-21 12:07:00,68.4,43.7,30.15,SSE,152,3.0,5.8,41,0.00,,,0.00,WUHU216HW,2013-04-21 17:07:00,
2013-04-21 12:12:00,68.4,43.7,30.14,SSE,155,2.1,5.8,41,0.00,,,0.00,WUHU216HW,2013-04-21 17:12:00,
2013-04-21 12:17:00,68.2,44.2,30.14,SE,133,3.2,4.7,42,0.00,,,0.00,WUHU216HW,2013-04-21 17:17:00,
2013-04-21 12:22:00,67.7,41.8,30.14,SE,135,3.8,5.4,39,0.00,,,0.00,WUHU216HW,2013-04-21 17:22:00,
2013-04-21 12:27:00,67.5,42.4,30.14,SE,135,2.9,5.4,40,0.00,,,0.00,WUHU216HW,2013-04-21 17:27:00,
2013-04-21 12:32:00,67.5,42.4,30.14,SE,135,4.0,6.3,40,0.00,,,0.00,WUHU216HW,2013-04-21 17:32:00,
2013-04-21 12:37:00,67.7,43.1,30.14,SSW,203,2.5,6.3,41,0.00,,,0.00,WUHU216HW,2013-04-21 17:37:00,
2013-04-21 12:42:00,68.0,42.8,30.13,SSE,155,4.0,4.9,40,0.00,,,0.00,WUHU216HW,2013-04-21 17:42:00,
2013-04-21 12:47:00,67.9,42.7,30.13,SE,136,3.8,6.3,40,0.00,,,0.00,WUHU216HW,2013-04-21 17:47:00,
2013-04-21 12:52:00,68.2,44.2,30.13,ENE,68,3.6,6.3,42,0.00,,,0.00,WUHU216HW,2013-04-21 17:52:00,
2013-04-21 12:57:00,68.2,44.2,30.12,SE,135,2.5,5.8,42,0.00,,,0.00,WUHU216HW,2013-04-21 17:57:00,
2013-04-21 13:02:00,68.0,43.5,30.13,SE,145,2.6,5.1,41,0.00,,,0.00,WUHU216HW,2013-04-21 18:02:00,
2013-04-21 13:07:00,68.0,43.5,30.13,East,90,4.3,6.5,41,0.00,,,0.00,WUHU216HW,2013-04-21 18:07:00,
2013-04-21 13:12:00,68.2,44.8,30.11,East,90,2.0,6.5,43,0.00,,,0.00,WUHU216HW,2013-04-21 18:12:00,
2013-04-21 13:17:00,69.1,45.0,30.12,ESE,113,3.6,5.6,42,0.00,,,0.00,WUHU216HW,2013-04-21 18:17:00,
2013-04-21 13:22:00,69.7,44.9,30.11,SSE,158,4.0,5.8,41,0.00,,,0.00,WUHU216HW,2013-04-21 18:22:00,
2013-04-21 13:27:00,69.1,43.1,30.11,SE,138,4.7,6.9,39,0.00,,,0.00,WUHU216HW,2013-04-21 18:27:00,
2013-04-21 13:32:00,68.4,41.7,30.11,SE,135,5.4,6.9,38,0.00,,,0.00,WUHU216HW,2013-04-21 18:32:00,
2013-04-21 13:37:00,68.4,42.4,30.11,SSE,158,5.4,6.9,39,0.00,,,0.00,WUHU216HW,2013-04-21 18:37:00,
2013-04-21 13:42:00,68.8,43.5,30.11,SSE,153,3.3,6.9,40,0.00,,,0.00,WUHU216HW,2013-04-21 18:42:00,
2013-04-21 13:47:00,68.4,42.4,30.11,SSE,158,4.7,6.7,39,0.00,,,0.00,WUHU216HW,2013-04-21 18:47:00,
2013-04-21 13:52:00,68.2,43.0,30.10,ESE,121,4.5,6.7,40,0.00,,,0.00,WUHU216HW,2013-04-21 18:52:00,
2013-04-21 13:57:00,68.4,42.4,30.10,SSE,162,3.6,6.0,39,0.00,,,0.00,WUHU216HW,2013-04-21 18:57:00,
2013-04-21 14:03:00,68.6,41.1,30.10,SE,135,5.8,6.3,37,0.00,,,0.00,WUHU216HW,2013-04-21 19:03:00,
2013-04-21 14:08:00,68.2,42.3,30.10,SE,135,2.5,6.3,39,0.00,,,0.00,WUHU216HW,2013-04-21 19:08:00,
2013-04-21 14:13:00,68.0,43.5,30.10,SE,135,3.6,5.8,41,0.00,,,0.00,WUHU216HW,2013-04-21 19:13:00,
2013-04-21 14:18:00,68.4,42.4,30.10,SE,126,3.0,6.5,39,0.00,,,0.00,WUHU216HW,2013-04-21 19:18:00,
2013-04-21 14:23:00,68.8,42.0,30.09,SSE,158,3.4,6.5,38,0.00,,,0.00,WUHU216HW,2013-04-21 19:23:00,
2013-04-21 14:28:00,68.2,40.8,30.09,SE,135,6.3,6.3,37,0.00,,,0.00,WUHU216HW,2013-04-21 19:28:00,
2013-04-21 14:33:00,67.5,41.6,30.09,SE,132,2.4,6.3,39,0.00,,,0.00,WUHU216HW,2013-04-21 19:33:00,
2013-04-21 14:38:00,67.7,41.8,30.09,ESE,113,4.0,6.3,39,0.00,,,0.00,WUHU216HW,2013-04-21 19:38:00,
2013-04-21 14:43:00,68.4,43.7,30.09,ESE,121,3.3,4.7,41,0.00,,,0.00,WUHU216HW,2013-04-21 19:43:00,
2013-04-21 14:48:00,68.8,43.5,30.09,ESE,110,2.8,5.6,40,0.00,,,0.00,WUHU216HW,2013-04-21 19:48:00,
2013-04-21 14:53:00,68.9,43.7,30.08,SE,135,2.5,5.6,40,0.00,,,0.00,WUHU216HW,2013-04-21 19:53:00,
2013-04-21 14:58:00,69.1,43.1,30.08,SE,125,3.7,4.9,39,0.00,,,0.00,WUHU216HW,2013-04-21 19:58:00,
2013-04-21 15:03:00,69.1,43.1,30.08,SE,135,3.6,12.1,39,0.00,,,0.00,WUHU216HW,2013-04-21 20:03:00,
2013-04-21 15:08:00,69.3,42.5,30.08,SE,133,3.8,12.1,38,0.00,,,0.00,WUHU216HW,2013-04-21 20:08:00,
2013-04-21 15:13:00,69.3,43.2,30.07,SE,145,3.4,6.3,39,0.00,,,0.00,WUHU216HW,2013-04-21 20:13:00,
2013-04-21 15:18:00,69.5,44.1,30.07,ESE,111,2.1,5.8,40,0.00,,,0.00,WUHU216HW,2013-04-21 20:18:00,
2013-04-21 15:23:00,69.8,43.8,30.07,SE,132,3.3,6.3,39,0.00,,,0.00,WUHU216HW,2013-04-21 20:23:00,
2013-04-21 15:28:00,69.8,43.8,30.06,ESE,120,2.7,6.3,39,0.00,,,0.00,WUHU216HW,2013-04-21 20:28:00,
2013-04-21 15:33:00,70.0,43.1,30.06,SE,135,4.3,4.5,38,0.00,,,0.00,WUHU216HW,2013-04-21 20:33:00,
2013-04-21 15:38:00,69.1,40.2,30.06,South,180,4.7,4.7,35,0.00,,,0.00,WUHU216HW,2013-04-21 20:38:00,
2013-04-21 15:43:00,67.7,38.9,30.06,SSE,158,2.5,4.7,35,0.00,,,0.00,WUHU216HW,2013-04-21 20:43:00,
2013-04-21 15:48:00,66.6,39.3,30.06,ESE,113,3.6,5.8,37,0.00,,,0.00,WUHU216HW,2013-04-21 20:48:00,
2013-04-21 15:53:00,66.4,40.0,30.06,ESE,116,1.4,5.8,38,0.00,,,0.00,WUHU216HW,2013-04-21 20:53:00,
2013-04-21 15:58:00,66.6,40.9,30.06,SSE,164,2.0,4.7,39,0.00,,,0.00,WUHU216HW,2013-04-21 20:58:00,
2013-04-21 16:03:00,67.5,41.6,30.06,SSE,158,4.3,4.9,39,0.00,,,0.00,WUHU216HW,2013-04-21 21:03:00,
2013-04-21 16:08:00,68.8,44.1,30.06,SE,135,3.4,6.3,41,0.00,,,0.00,WUHU216HW,2013-04-21 21:08:00,
2013-04-21 16:13:00,69.7,43.6,30.06,ESE,118,3.0,6.3,39,0.00,,,0.00,WUHU216HW,2013-04-21 21:13:00,
2013-04-21 16:18:00,68.9,41.4,30.05,ESE,111,3.0,6.9,37,0.00,,,0.00,WUHU216HW,2013-04-21 21:18:00,
2013-04-21 16:23:00,68.8,41.3,30.05,SE,127,2.1,6.9,37,0.00,,,0.00,WUHU216HW,2013-04-21 21:23:00,
2013-04-21 16:28:00,69.3,41.8,30.05,SE,138,3.8,6.0,37,0.00,,,0.00,WUHU216HW,2013-04-21 21:28:00,
2013-04-21 16:33:00,69.7,42.9,30.05,SE,136,2.2,6.0,38,0.00,,,0.00,WUHU216HW,2013-04-21 21:33:00,
2013-04-21 16:38:00,69.7,42.9,30.05,SSE,152,1.7,5.1,38,0.00,,,0.00,WUHU216HW,2013-04-21 21:38:00,
2013-04-21 16:43:00,69.5,42.0,30.05,SSE,158,2.5,6.7,37,0.00,,,0.00,WUHU216HW,2013-04-21 21:43:00,
2013-04-21 16:48:00,69.8,42.2,30.04,ESE,115,2.3,6.7,37,0.00,,,0.00,WUHU216HW,2013-04-21 21:48:00,
2013-04-21 16:53:00,69.7,42.9,30.04,SE,133,2.6,7.8,38,0.00,,,0.00,WUHU216HW,2013-04-21 21:53:00,
2013-04-21 16:58:00,69.3,42.5,30.04,SE,127,1.4,7.8,38,0.00,,,0.00,WUHU216HW,2013-04-21 21:58:00,
2013-04-21 17:03:00,68.8,42.0,30.04,SE,135,2.0,4.7,38,0.00,,,0.00,WUHU216HW,2013-04-21 22:03:00,
2013-04-21 17:08:00,68.0,41.4,30.04,SE,135,2.9,4.7,38,0.00,,,0.00,WUHU216HW,2013-04-21 22:08:00,
2013-04-21 17:13:00,67.5,41.6,30.04,SE,131,3.3,4.3,39,0.00,,,0.00,WUHU216HW,2013-04-21 22:13:00,
2013-04-21 17:18:00,67.1,41.3,30.04,SE,137,1.8,4.3,39,0.00,,,0.00,WUHU216HW,2013-04-21 22:18:00,
2013-04-21 17:23:00,67.0,41.9,30.04,ESE,113,3.1,3.1,40,0.00,,,0.00,WUHU216HW,2013-04-21 22:23:00,
2013-04-21 17:28:00,66.2,40.5,30.04,SE,127,2.2,4.5,39,0.00,,,0.00,WUHU216HW,2013-04-21 22:28:00,
2013-04-21 17:33:00,66.2,41.2,30.04,ENE,68,4.7,4.7,40,0.00,,,0.00,WUHU216HW,2013-04-21 22:33:00,
2013-04-21 17:38:00,67.0,41.9,30.04,ESE,113,2.7,4.7,40,0.00,,,0.00,WUHU216HW,2013-04-21 22:38:00,
2013-04-21 17:43:00,68.2,43.0,30.04,ESE,121,3.0,5.4,40,0.00,,,0.00,WUHU216HW,2013-04-21 22:43:00,
2013-04-21 17:48:00,68.8,43.5,30.04,ESE,113,3.4,5.4,40,0.00,,,0.00,WUHU216HW,2013-04-21 22:48:00,
2013-04-21 17:53:00,69.1,43.1,30.04,South,180,2.2,4.0,39,0.00,,,0.00,WUHU216HW,2013-04-21 22:53:00,
2013-04-21 17:58:00,68.4,41.7,30.03,East,90,3.4,4.9,38,0.00,,,0.00,WUHU216HW,2013-04-21 22:58:00,
2013-04-21 18:03:00,67.0,41.1,30.03,ESE,108,3.6,5.1,39,0.00,,,0.00,WUHU216HW,2013-04-21 23:03:00,
2013-04-21 18:08:00,66.6,40.9,30.03,ESE,107,3.4,5.1,39,0.00,,,0.00,WUHU216HW,2013-04-21 23:08:00,
2013-04-21 18:13:00,66.2,41.2,30.03,ESE,113,4.0,4.7,40,0.00,,,0.00,WUHU216HW,2013-04-21 23:13:00,
2013-04-21 18:18:00,66.6,40.9,30.03,ESE,111,1.7,4.5,39,0.00,,,0.00,WUHU216HW,2013-04-21 23:18:00,
2013-04-21 18:23:00,67.0,41.1,30.03,ESE,120,1.9,5.8,39,0.00,,,0.00,WUHU216HW,2013-04-21 23:23:00,
2013-04-21 18:28:00,67.5,41.6,30.03,ESE,118,1.6,5.8,39,0.00,,,0.00,WUHU216HW,2013-04-21 23:28:00,
2013-04-21 18:33:00,67.0,41.1,30.03,SSE,158,3.4,3.4,39,0.00,,,0.00,WUHU216HW,2013-04-21 23:33:00,
2013-04-21 18:38:00,67.0,40.4,30.04,ESE,113,2.7,4.0,38,0.00,,,0.00,WUHU216HW,2013-04-21 23:38:00,
2013-04-21 18:43:00,66.6,40.2,30.04,SSE,148,1.6,4.9,38,0.00,,,0.00,WUHU216HW,2013-04-21 23:43:00,
2013-04-21 18:48:00,66.8,41.0,30.03,SE,135,1.1,4.9,39,0.00,,,0.00,WUHU216HW,2013-04-21 23:48:00,
2013-04-21 18:53:00,67.7,41.0,30.04,SE,142,1.6,4.3,38,0.00,,,0.00,WUHU216HW,2013-04-21 23:53:00,
2013-04-21 18:58:00,67.7,41.8,30.04,ESE,113,1.3,4.0,39,0.00,,,0.00,WUHU216HW,2013-04-21 23:58:00,
2013-04-21 19:03:00,67.3,41.5,30.04,ESE,113,1.1,4.0,39,0.00,,,0.00,WUHU216HW,2013-04-22 00:03:00,
2013-04-21 19:08:00,66.8,40.2,30.04,ESE,121,1.2,3.1,38,0.00,,,0.00,WUHU216HW,2013-04-22 00:08:00,
2013-04-21 19:13:00,65.7,40.8,30.04,SE,124,1.5,3.4,40,0.00,,,0.00,WUHU216HW,2013-04-22 00:13:00,
2013-04-21 19:18:00,64.8,40.0,30.04,SE,124,0.8,3.4,40,0.00,,,0.00,WUHU216HW,2013-04-22 00:18:00,
2013-04-21 19:23:00,64.1,39.2,30.04,SE,127,0.8,4.3,40,0.00,,,0.00,WUHU216HW,2013-04-22 00:23:00,
2013-04-21 19:28:00,63.5,39.3,30.04,SE,135,1.8,4.3,41,0.00,,,0.00,WUHU216HW,2013-04-22 00:28:00,
2013-04-21 19:33:00,63.0,39.4,30.04,ESE,116,0.8,2.0,42,0.00,,,0.00,WUHU216HW,2013-04-22 00:33:00,
2013-04-21 19:38:00,62.6,39.7,30.05,SE,135,0.7,2.0,43,0.00,,,0.00,WUHU216HW,2013-04-22 00:38:00,
2013-04-21 19:43:00,62.3,39.4,30.05,ESE,113,1.1,2.2,43,0.00,,,0.00,WUHU216HW,2013-04-22 00:43:00,
2013-04-21 19:48:00,61.9,39.1,30.05,ESE,120,0.6,2.2,43,0.00,,,0.00,WUHU216HW,2013-04-22 00:48:00,
2013-04-21 19:53:00,61.6,39.3,30.05,ESE,123,0.8,1.6,44,0.00,,,0.00,WUHU216HW,2013-04-22 00:53:00,
2013-04-21 19:58:00,61.4,39.2,30.05,ESE,113,0.9,1.6,44,0.00,,,0.00,WUHU216HW,2013-04-22 00:58:00,
2013-04-21 20:03:00,61.0,39.4,30.05,ESE,113,0.6,1.1,45,0.00,,,0.00,WUHU216HW,2013-04-22 01:03:00,
2013-04-21 20:08:00,60.8,38.7,30.06,ESE,113,0.6,1.1,44,0.00,,,0.00,WUHU216HW,2013-04-22 01:08:00,
2013-04-21 20:13:00,60.7,39.1,30.06,SE,135,0.4,1.1,45,0.00,,,0.00,WUHU216HW,2013-04-22 01:13:00,
2013-04-21 20:18:00,60.5,38.9,30.06,SE,140,0.4,1.6,45,0.00,,,0.00,WUHU216HW,2013-04-22 01:18:00,
2013-04-21 20:23:00,60.7,38.5,30.06,ESE,113,0.9,1.6,44,0.00,,,0.00,WUHU216HW,2013-04-22 01:23:00,
2013-04-21 20:28:00,60.7,39.1,30.06,SE,131,0.8,1.8,45,0.00,,,0.00,WUHU216HW,2013-04-22 01:28:00,
2013-04-21 20:33:00,60.7,39.1,30.06,SE,137,0.5,1.8,45,0.00,,,0.00,WUHU216HW,2013-04-22 01:33:00,
2013-04-21 20:38:00,60.5,38.9,30.06,ESE,119,1.6,2.2,45,0.00,,,0.00,WUHU216HW,2013-04-22 01:38:00,
2013-04-21 20:43:00,60.3,38.8,30.06,SE,135,0.9,2.2,45,0.00,,,0.00,WUHU216HW,2013-04-22 01:43:00,
2013-04-21 20:48:00,59.9,39.0,30.06,SE,135,0.7,1.6,46,0.00,,,0.00,WUHU216HW,2013-04-22 01:48:00,
2013-04-21 20:53:00,59.6,38.7,30.06,SE,135,0.7,1.6,46,0.00,,,0.00,WUHU216HW,2013-04-22 01:53:00,
2013-04-21 20:58:00,59.2,38.3,30.07,SE,141,0.6,1.3,46,0.00,,,0.00,WUHU216HW,2013-04-22 01:58:00,
2013-04-21 21:03:00,58.9,38.6,30.07,ESE,109,0.7,1.1,47,0.00,,,0.00,WUHU216HW,2013-04-22 02:03:00,
2013-04-21 21:08:00,58.7,39.1,30.07,ESE,113,0.9,1.1,48,0.00,,,0.00,WUHU216HW,2013-04-22 02:08:00,
2013-04-21 21:13:00,58.1,39.2,30.07,ESE,113,0.4,0.9,49,0.00,,,0.00,WUHU216HW,2013-04-22 02:13:00,
2013-04-21 21:18:00,58.0,39.0,30.07,East,89,0.5,0.9,49,0.00,,,0.00,WUHU216HW,2013-04-22 02:18:00,
2013-04-21 21:23:00,57.6,39.3,30.07,SE,135,0.9,0.9,50,0.00,,,0.00,WUHU216HW,2013-04-22 02:23:00,
2013-04-21 21:28:00,57.2,39.3,30.07,ESE,116,1.2,3.1,51,0.00,,,0.00,WUHU216HW,2013-04-22 02:28:00,
2013-04-21 21:33:00,57.2,38.9,30.07,ESE,107,0.9,3.1,50,0.00,,,0.00,WUHU216HW,2013-04-22 02:33:00,
2013-04-21 21:38:00,57.2,38.9,30.07,SE,135,1.3,2.5,50,0.00,,,0.00,WUHU216HW,2013-04-22 02:38:00,
2013-04-21 21:43:00,57.2,38.9,30.07,ESE,113,1.6,6.3,50,0.00,,,0.00,WUHU216HW,2013-04-22 02:43:00,
2013-04-21 21:48:00,57.2,38.9,30.07,East,90,2.7,6.3,50,0.00,,,0.00,WUHU216HW,2013-04-22 02:48:00,
2013-04-21 21:53:00,57.2,39.3,30.07,East,90,1.1,2.7,51,0.00,,,0.00,WUHU216HW,2013-04-22 02:53:00,
2013-04-21 21:58:00,57.2,38.9,30.08,SSE,165,1.3,2.0,50,0.00,,,0.00,WUHU216HW,2013-04-22 02:58:00,
2013-04-21 22:03:00,57.1,39.2,30.08,SE,139,1.0,1.8,51,0.00,,,0.00,WUHU216HW,2013-04-22 03:03:00,
2013-04-21 22:08:00,56.9,39.0,30.08,South,180,1.1,1.6,51,0.00,,,0.00,WUHU216HW,2013-04-22 03:08:00,
2013-04-21 22:13:00,56.7,39.2,30.09,SE,135,0.9,1.6,52,0.00,,,0.00,WUHU216HW,2013-04-22 03:13:00,
2013-04-21 22:18:00,56.5,39.1,30.09,ESE,113,0.9,1.1,52,0.00,,,0.00,WUHU216HW,2013-04-22 03:18:00,
2013-04-21 22:23:00,56.3,38.9,30.09,SE,135,0.3,1.1,52,0.00,,,0.00,WUHU216HW,2013-04-22 03:23:00,
2013-04-21 22:28:00,56.2,38.7,30.09,SE,135,0.6,0.9,52,0.00,,,0.00,WUHU216HW,2013-04-22 03:28:00,
2013-04-21 22:33:00,56.0,38.5,30.09,SE,143,2.0,2.7,52,0.00,,,0.00,WUHU216HW,2013-04-22 03:33:00,
2013-04-21 22:38:00,55.8,38.9,30.09,ESE,117,0.7,2.7,53,0.00,,,0.00,WUHU216HW,2013-04-22 03:38:00,
2013-04-21 22:43:00,55.8,39.3,30.09,ESE,113,1.1,1.6,54,0.00,,,0.00,WUHU216HW,2013-04-22 03:43:00,
2013-04-21 22:48:00,55.6,39.2,30.09,SSE,152,1.3,2.5,54,0.00,,,0.00,WUHU216HW,2013-04-22 03:48:00,
2013-04-21 22:53:00,55.4,39.4,30.09,SE,142,0.8,2.5,55,0.00,,,0.00,WUHU216HW,2013-04-22 03:53:00,
2013-04-21 22:58:00,55.3,39.2,30.09,ESE,113,0.9,2.0,55,0.00,,,0.00,WUHU216HW,2013-04-22 03:58:00,
2013-04-21 23:01:00,55.3,39.2,30.09,SE,135,0.9,2.0,55,0.00,,,0.00,WUHU216HW,2013-04-22 04:01:00,
2013-04-21 23:06:00,55.1,39.1,30.09,ESE,110,1.0,2.0,55,0.00,,,0.00,WUHU216HW,2013-04-22 04:06:00,
2013-04-21 23:11:00,55.1,39.1,30.09,SE,135,1.2,4.7,55,0.00,,,0.00,WUHU216HW,2013-04-22 04:11:00,
2013-04-21 23:16:00,55.1,39.1,30.09,SE,135,0.9,4.7,55,0.00,,,0.00,WUHU216HW,2013-04-22 04:16:00,
2013-04-21 23:21:00,54.9,39.0,30.09,SE,141,1.4,4.7,55,0.00,,,0.00,WUHU216HW,2013-04-22 04:21:00,
2013-04-21 23:26:00,54.9,39.0,30.09,SE,139,1.5,4.0,55,0.00,,,0.00,WUHU216HW,2013-04-22 04:26:00,
2013-04-21 23:31:00,54.7,38.8,30.09,SE,135,1.1,4.0,55,0.00,,,0.00,WUHU216HW,2013-04-22 04:31:00,
2013-04-21 23:36:00,54.4,38.9,30.10,SE,135,0.7,1.3,56,0.00,,,0.00,WUHU216HW,2013-04-22 04:36:00,
2013-04-21 23:41:00,54.4,38.9,30.09,SE,135,0.9,1.1,56,0.00,,,0.00,WUHU216HW,2013-04-22 04:41:00,
2013-04-21 23:46:00,54.2,39.3,30.09,SE,135,0.7,1.6,57,0.00,,,0.00,WUHU216HW,2013-04-22 04:46:00,
2013-04-21 23:51:00,54.0,39.1,30.10,SE,135,0.7,1.6,57,0.00,,,0.00,WUHU216HW,2013-04-22 04:51:00,
2013-04-21 23:56:00,53.8,38.9,30.10,ENE,76,0.8,1.8,57,0.00,,,0.00,WUHU216HW,2013-04-22 04:56:00,